Location: Brno
(49.2000°N, 16.6330°E)
Time: 07:07:46
(UTC+01:00)

Daily predictions for brighter satellites

Satellite Brightness Start Highest point End
(mag) Time Altitude Azimuth Time Altitude Azimuth Time Altitude Azimuth
CZ-3A R/B 3.4 16:28:01 10° SSW 16:32:13 56° SE 16:51:47 10° ENE
Cosmos 2181 Rocket 4.5 16:26:35 10° SSE 16:32:29 42° E 16:38:29 10° NNE
CZ-2C R/B 3.9 16:28:31 10° NNE 16:32:53 52° E 16:37:14 10° S
MTI 3.8 16:30:13 10° NNE 16:33:34 78° ESE 16:36:52 10° S
Cosmos 2263 Rocket 2.3 16:31:05 10° SSW 16:36:43 81° WNW 16:42:25 10° NNE
Cosmos 1602 3.8 16:32:55 10° N 16:36:54 87° WSW 16:40:48 10° S
Cosmos 1300 Rocket 3.9 16:33:27 10° NNW 16:37:48 71° W 16:42:06 10° S
IRS-1A Rocket 4.2 16:32:55 10° SSE 16:38:25 81° ENE 16:43:58 10° NNW
Cosmos 158 Rocket 4.0 16:33:03 10° NNW 16:38:27 68° ENE 16:43:43 10° SSE
Cosmos 1484 Rocket 4.1 16:41:22 10° ESE 16:43:53 17° ENE 16:46:24 10° NNE
YAOGAN 1 3.0 16:40:09 10° SE 16:44:12 41° ENE 16:48:17 10° N
Nadezhda 1 Rocket 4.1 16:38:10 10° SSW 16:44:14 80° W 16:50:26 10° N
CZ-2C R/B 2.7 16:39:29 10° SE 16:44:17 49° ENE 16:49:14 10° N
Cosmos 1238 Rocket 4.1 16:43:52 10° ESE 16:45:03 12° E 16:45:58 11° ENE
Meteor 1-11 Rocket 4.0 16:39:42 10° NNW 16:45:17 74° W 16:50:46 10° S
ERBS 3.7 16:42:42 10° WNW 16:45:42 27° NNW 16:48:42 10° NE
ISS -1.4 16:43:34 10° S 16:45:59 19° SE 16:48:24 10° E
Cosmos 1048 Rocket 4.3 16:41:13 10° NNW 16:46:31 78° WSW 16:51:51 10° SSE
Cosmos 2341 Rocket 4.0 16:43:48 10° N 16:50:04 83° E 16:56:17 10° S
CSL-04 Rocket 4.3 16:44:40 10° S 16:50:04 63° WSW 16:55:35 10° NNW
EO 1 Del DPAF 3.9 16:48:17 10° N 16:52:07 57° WNW 16:55:55 10° SSW
Cosmos 1378 Rocket 3.5 16:48:40 10° S 16:52:57 76° E 16:57:17 10° NNE
SMAP 3.1 16:50:54 10° SSE 16:55:27 58° ENE 17:00:03 10° N
USA 234 3.4 16:51:37 10° ENE 16:58:06 64° SE 17:04:35 10° SW
GEOS 3 Rocket 3.8 16:55:52 10° ESE 17:00:48 51° NE 17:05:47 10° NW
Cosmos 1455 Rocket 3.6 16:57:06 10° N 17:01:12 37° ENE 17:05:18 10° SE
Cosmos 1844 Rocket 3.1 16:57:38 10° S 17:02:51 42° ESE 17:08:00 11° NE
SL-27 R/B 2.6 16:59:37 10° NNW 17:03:17 58° ENE 17:06:53 10° SE
Cosmos 1606 4.3 16:59:49 10° SW 17:03:28 37° WNW 17:07:09 10° N
Cosmos 1633 3.8 17:00:14 10° NNW 17:03:41 45° W 17:07:07 10° SSW
MSX 3.9 17:00:26 10° SE 17:06:00 54° ENE 17:11:36 10° N
SL-16 R/B 4.3 17:01:03 10° N 17:06:10 28° WNW 17:11:16 10° WSW
Cosmos 1536 3.3 17:02:51 10° NNW 17:06:54 66° W 17:10:56 10° S
ATLAS CENTAUR R/B 3.6 17:04:53 10° WNW 17:08:10 18° NNW 17:11:18 10° NNE
PAYLOAD A 4.2 17:05:42 10° S 17:10:30 72° WSW 17:15:31 10° NNW
Meteor 1-27 Rocket 4.3 17:06:59 10° SSW 17:12:46 62° WNW 17:18:27 10° N
SPOT 3 Rocket 3.6 17:10:06 10° SSE 17:15:19 89° W 17:20:32 10° NNW
Cosmos 1844 4.2 17:10:18 10° S 17:15:25 39° ESE 17:19:36 15° NE
ATLAS 2AS CENTAUR R/B 3.1 17:09:51 10° NW 17:18:03 89° SW 17:25:47 10° SE
Meteor 1-12 Rocket 4.4 17:12:26 10° N 17:18:05 54° ENE 17:23:49 10° SSE
CORIOLIS 4.1 17:15:09 10° SSE 17:20:35 87° ENE 17:26:01 10° NNW
Cosmos 864 Rocket 4.5 17:17:17 10° N 17:23:32 65° ENE 17:29:47 10° SSE
Cosmos 1812 3.2 17:21:40 10° SSE 17:25:15 38° E 17:27:43 18° NNE
Cosmos 1346 Rocket 4.2 17:26:46 10° SE 17:28:50 19° ESE 17:28:50 19° ESE
Abrixas 2.4 17:27:36 10° W 17:30:33 78° S 17:31:41 34° E
USA 32 3.9 17:25:26 10° S 17:30:38 75° E 17:35:52 10° N
Cosmos 372 Rocket 4.1 17:25:26 10° SSW 17:30:41 83° WNW 17:36:00 10° NNE
COSMOS 2406 4.5 17:26:54 10° NW 17:32:19 44° WSW 17:37:43 10° S
Cosmos 2278 Rocket 2.8 17:27:45 10° S 17:32:47 34° ESE 17:35:28 23° ENE
IDEFIX/ARIANE 42P 2.9 17:27:59 10° S 17:33:10 69° WSW 17:38:22 10° NNW
CZ-4 R/B 2.9 17:35:38 10° S 17:39:35 40° W 17:43:32 10° NNW
Cosmos 375 4.4 17:38:30 10° NW 17:43:24 86° NE 17:46:44 14° SE
Cosmos 494 Rocket 4.1 17:39:35 10° NNW 17:44:50 81° WSW 17:50:06 10° SSE
Cosmos 1975 2.7 17:44:39 10° N 17:48:46 73° E 17:52:48 10° SSE
Thor Agena Rocket 3.8 17:43:49 10° NNE 17:48:59 73° WNW 17:54:12 10° SSW
COSMO-SKYMED 1 2.7 17:46:58 26° NE 17:49:06 49° E 17:53:18 10° S
COSMOS 2487 2.7 17:45:51 10° NNW 17:49:21 46° ENE 17:49:23 46° ENE
Cosmos 1544 Rocket 4.2 17:45:04 10° NNW 17:49:28 60° W 17:53:52 10° S
ASTRO F (AKARI) 4.1 17:51:05 37° NNE 17:52:12 90° SSE 17:55:20 10° SSW
Cosmos 2082 Rocket 2.3 17:48:15 10° NNW 17:53:46 50° NE 17:57:15 22° ESE
Meteor 2-21 Rocket 4.5 17:49:35 10° N 17:55:43 57° ENE 18:01:47 10° SSE
Cosmos 1975 Rocket 4.4 17:53:02 10° SW 17:57:05 39° WNW 18:01:10 10° N
Cosmos 1833 Rocket 2.9 17:52:43 10° NNW 17:58:12 47° NE 18:00:30 31° ESE
Meteor 2-16 Rocket 4.5 17:54:57 10° N 18:00:53 51° ENE 18:06:47 10° SSE
BREEZE-M DEB (TANK) 2.4 18:00:49 10° WSW 18:02:25 47° SW 18:02:25 47° SW
Cosmos 2251 Rocket 4.4 17:57:50 10° NNW 18:03:03 51° WSW 18:08:10 10° S
BREEZE-M DEB (TANK) 4.4 17:40:14 10° WSW 18:08:43 74° NNW 18:12:02 34° ENE
NOAA 12 4.0 18:03:33 10° SSE 18:08:48 67° ENE 18:14:02 10° N
METEOR-M 4.0 18:06:57 10° SSE 18:12:12 62° ENE 18:17:29 10° N
CZ-3B DEB 2.7 18:08:21 10° SW 18:12:45 69° SE 18:17:21 32° ENE
Cosmos 1536 Rocket 3.7 18:09:01 10° SSW 18:13:29 78° W 18:16:37 20° N
BREEZE-M R/B 4.1 18:05:15 10° SW 18:14:11 48° SSE 18:15:33 39° ESE
Genesis I 3.3 18:11:50 10° NW 18:15:46 75° SW 18:16:36 52° SSE
BREEZE M DEB (TANK) 3.1 18:14:34 10° W 18:17:55 80° SSW 18:21:01 34° ESE
Cosmos 1484 Rocket 3.8 18:14:27 10° S 18:18:04 45° W 18:21:41 10° NNW
Cosmos 1535 Rocket 4.5 18:12:05 10° N 18:18:24 60° ENE 18:24:33 10° SSE
DMSP B5D1-3 4.4 18:18:07 32° NNE 18:20:31 74° ESE 18:25:39 10° S
Cosmos 2263 Rocket 4.3 18:17:29 10° W 18:21:34 20° NW 18:25:43 10° N
Cosmos 1934 Rocket 4.0 18:15:52 10° N 18:21:52 51° ENE 18:24:19 33° SE
ISS -2.4 18:18:48 10° WSW 18:21:18 48° WSW 18:21:18 48° WSW
ERBS 4.5 18:20:29 10° NW 18:22:05 19° NNW 18:22:05 19° NNW
Timation 2 Rocket 4.1 18:17:14 10° NNW 18:24:04 89° ENE 18:30:59 10° SSE
Cosmos 1238 Rocket 4.0 18:21:56 10° SW 18:24:34 30° WNW 18:25:11 27° NW
Cosmos 1500 4.4 18:31:06 10° NNW 18:34:43 41° W 18:38:20 10° SSW
Resurs 01 Rocket 3.9 18:39:42 14° N 18:39:42 14° N 18:40:19 10° N
Cosmos 2239 Rocket 4.3 18:29:44 10° N 18:36:00 80° E 18:42:11 10° SSE
SKYMED 2 4.1 18:35:36 34° N 18:37:13 56° WNW 18:41:28 10° SSW
USA 234 3.5 18:38:57 41° NE 18:41:08 60° NNW 18:47:32 10° W
Cosmos 1821 Rocket 3.8 18:38:41 10° N 18:44:50 88° ENE 18:50:56 10° S
Cosmos 1844 Rocket 3.8 18:41:34 10° WSW 18:46:48 39° NW 18:49:41 23° N
ATLAS CENTAUR R/B 4.2 18:48:05 10° NNW 18:48:16 10° NNW 18:48:16 10° NNW
NOSS 3-4 (A) 3.6 18:46:50 10° NW 18:53:45 76° NE 18:54:38 67° E
NOSS 3-4 (C) 3.6 18:46:56 10° NW 18:53:51 75° NE 18:54:42 67° E
Cosmos 2297 4.1 18:55:09 10° SSW 18:59:22 52° S 18:59:22 52° S
NOSS 3-3 (A) 4.0 18:57:31 10° SW 19:03:50 82° NW 19:04:28 73° NNE
NOSS 3-3 (C) 4.0 18:57:37 10° SW 19:03:56 82° NW 19:04:32 74° NNE
Spot 2 Rocket 4.4 19:06:57 40° NNW 19:06:57 40° NNW 19:10:14 10° NNW
Cosmos 2278 Rocket 3.0 19:11:18 10° SW 19:16:44 46° NW 19:17:21 45° NW
Cosmos 2082 Rocket 3.8 19:32:42 10° NW 19:37:38 31° WSW 19:39:14 27° SW
Cosmos 1833 Rocket 4.1 19:36:57 10° NW 19:41:59 34° WSW 19:42:16 33° WSW
FALCON 9 R/B 4.4 19:42:16 10° WSW 19:52:28 26° SSW 19:52:36 26° SSW
CZ-3B DEB 4.1 20:41:36 10° W 20:46:09 49° WNW 20:46:09 49° WNW
